GW5060 Weather Reports


time (UTC)temp
C
wind
direction
speed
KPH
gust
KPH
rain 1hr
cm
rain 24hr
cm
rain mn
cm
humidity
%
barometer
mb
20260902185036 28 360 0.0 3.2 0.00 0.00 0.00 58 1016.8
20260902184557 28 360 1.6 3.2 0.00 0.00 0.00 57 1016.7
20260902184037 28 0 0.0 1.6 0.00 0.00 0.00 57 1016.7
20260902183537 29 0 0.0 0.0 0.00 0.00 0.00 56 1016.6
20260902183055 29 0 0.0 1.6 0.00 0.00 0.00 55 1016.5
20260902182536 29 0 0.0 1.6 0.00 0.00 0.00 54 1016.5
20260902182036 30 0 0.0 1.6 0.00 0.00 0.00 54 1016.5
20260902181557 30 0 0.0 3.2 0.00 0.00 0.00 53 1016.4
20260902181037 30 0 0.0 3.2 0.00 0.00 0.00 53 1016.4
20260902180535 30 0 0.0 3.2 0.00 0.00 0.00 53 1016.4
20260902180056 30 295 0.0 3.2 0.00 0.00 0.00 53 1016.3
20260902175537 30 295 1.6 6.4 0.00 0.00 0.00 52 1016.3
20260902175037 30 294 1.6 6.4 0.00 0.00 0.00 52 1016.2
20260902174601 30 261 3.2 9.7 0.00 0.00 0.00 51 1016.2
20260902174039 30 295 4.8 9.7 0.00 0.00 0.00 51 1016.2
20260902173534 30 301 3.2 9.7 0.00 0.00 0.00 50 1016.1
20260902173102 30 254 1.6 11.3 0.00 0.00 0.00 50 1016.0
20260902172540 31 267 6.4 12.9 0.00 0.00 0.00 49 1016.0
20260902172036 31 289 4.8 12.9 0.00 0.00 0.00 48 1016.0
20260902171604 31 299 6.4 12.9 0.00 0.00 0.00 48 1016.1
20260902171038 31 313 3.2 12.9 0.00 0.00 0.00 48 1016.0
20260902170537 31 263 4.8 14.5 0.00 0.00 0.00 48 1016.0
20260902170054 31 262 6.4 16.1 0.00 0.00 0.00 47 1016.1
20260902165537 31 255 8.0 16.1 0.00 0.00 0.00 47 1016.1
20260902165040 31 311 6.4 14.5 0.00 0.00 0.00 46 1016.1
20260902164556 31 227 9.7 14.5 0.00 0.00 0.00 47 1016.0
20260902164034 31 262 6.4 14.5 0.00 0.00 0.00 48 1016.1
20260902163536 31 249 8.0 14.5 0.00 0.00 0.00 48 1016.0
20260902163057 31 209 4.8 14.5 0.00 0.00 0.00 48 1016.2
20260902162537 31 240 8.0 14.5 0.00 0.00 0.00 48 1016.1
20260902162037 31 239 6.4 14.5 0.00 0.00 0.00 48 1016.2
20260902161558 31 242 4.8 14.5 0.00 0.00 0.00 49 1016.1
20260902161036 31 236 4.8 14.5 0.00 0.00 0.00 50 1016.1
20260902160540 31 302 6.4 16.1 0.00 0.00 0.00 49 1016.2
20260902160100 31 257 9.7 16.1 0.00 0.00 0.00 49 1016.2
20260902155537 31 260 6.4 17.7 0.00 0.00 0.00 50 1016.2
20260902155036 31 298 6.4 17.7 0.00 0.00 0.00 50 1016.3
20260902154608 31 234 11.3 17.7 0.00 0.00 0.00 50 1016.4
20260902154036 31 225 11.3 17.7 0.00 0.00 0.00 50 1016.3
20260902153538 31 244 8.0 17.7 0.00 0.00 0.00 50 1016.5
20260902153103 31 307 9.7 17.7 0.00 0.00 0.00 50 1016.4
20260902152537 31 254 4.8 16.1 0.00 0.00 0.00 49 1016.5
20260902152037 31 283 6.4 17.7 0.00 0.00 0.00 50 1016.5
20260902151550 31 293 8.0 17.7 0.00 0.00 0.00 51 1016.6
20260902151037 31 227 6.4 17.7 0.00 0.00 0.00 51 1016.6
20260902150536 31 284 6.4 19.3 0.00 0.00 0.00 52 1016.7
20260902150058 31 279 6.4 19.3 0.00 0.00 0.00 51 1016.8
20260902145538 31 290 8.0 19.3 0.00 0.00 0.00 51 1016.9
20260902145040 31 323 6.4 14.5 0.00 0.00 0.00 51 1016.9
20260902144555 31 261 4.8 14.5 0.00 0.00 0.00 50 1016.9
20260902144037 31 316 8.0 16.1 0.00 0.00 0.00 50 1017.0
20260902143537 31 234 6.4 16.1 0.00 0.00 0.00 50 1017.0
20260902143101 31 277 6.4 14.5 0.00 0.00 0.00 50 1017.0
20260902142537 31 251 6.4 16.1 0.00 0.00 0.00 49 1017.1
20260902142037 32 277 6.4 16.1 0.00 0.00 0.00 48 1017.2
20260902141557 32 277 6.4 14.5 0.00 0.00 0.00 49 1017.2
20260902141036 32 325 1.6 12.9 0.00 0.00 0.00 48 1017.2
20260902140537 31 299 6.4 14.5 0.00 0.00 0.00 48 1017.3
20260902140056 31 252 1.6 14.5 0.00 0.00 0.00 49 1017.3
20260902135539 31 328 4.8 14.5 0.00 0.00 0.00 50 1017.4
20260902135037 31 275 1.6 16.1 0.00 0.00 0.00 50 1017.4
20260902134601 32 313 6.4 16.1 0.00 0.00 0.00 50 1017.6
20260902134036 32 312 8.0 14.5 0.00 0.00 0.00 50 1017.6
20260902133537 32 233 6.4 11.3 0.00 0.00 0.00 50 1017.6
20260902133058 32 11 3.2 11.3 0.00 0.00 0.00 50 1017.6
20260902132540 32 234 4.8 14.5 0.00 0.00 0.00 50 1017.8
20260902132037 31 277 3.2 14.5 0.00 0.00 0.00 52 1017.8
20260902131556 31 222 3.2 14.5 0.00 0.00 0.00 52 1017.9
20260902131040 31 327 4.8 14.5 0.00 0.00 0.00 52 1017.9
20260902130536 31 52 3.2 14.5 0.00 0.00 0.00 47 1018.0
20260902130057 31 293 6.4 14.5 0.00 0.00 0.00 51 1018.1
20260902125538 31 172 3.2 12.9 0.00 0.00 0.00 53 1018.2
20260902125038 31 345 1.6 12.9 0.00 0.00 0.00 50 1018.1
20260902124559 31 245 6.4 12.9 0.00 0.00 0.00 52 1018.2
20260902124041 31 209 3.2 12.9 0.00 0.00 0.00 53 1018.3
20260902123537 31 235 3.2 8.0 0.00 0.00 0.00 53 1018.4
20260902123104 31 55 1.6 11.3 0.00 0.00 0.00 53 1018.3
20260902122540 31 181 4.8 11.3 0.00 0.00 0.00 53 1018.4
20260902122036 31 244 4.8 9.7 0.00 0.00 0.00 53 1018.4
20260902121554 31 254 3.2 11.3 0.00 0.00 0.00 53 1018.4
20260902121037 31 289 6.4 12.9 0.00 0.00 0.00 53 1018.4
20260902120537 31 265 8.0 12.9 0.00 0.00 0.00 53 1018.5
20260902120100 31 298 4.8 12.9 0.00 0.00 0.00 53 1018.6
20260902115536 31 276 6.4 12.9 0.00 0.00 0.00 53 1018.7
20260902115036 31 297 6.4 14.5 0.00 0.00 0.00 52 1018.7
20260902114617 31 212 4.8 14.5 0.00 0.00 0.00 52 1018.7
20260902114033 31 254 4.8 14.5 0.00 0.00 0.00 52 1018.8
20260902113537 31 249 3.2 8.0 0.00 0.00 0.00 53 1018.8
20260902113106 31 229 3.2 12.9 0.00 0.00 0.00 54 1019.0
20260902112537 31 11 1.6 12.9 0.00 0.00 0.00 53 1018.9
20260902112037 31 237 1.6 9.7 0.00 0.00 0.00 52 1018.9
20260902111604 31 260 3.2 11.3 0.00 0.00 0.00 52 1019.0
20260902111037 31 211 1.6 11.3 0.00 0.00 0.00 53 1019.1
20260902110537 31 248 4.8 11.3 0.00 0.00 0.00 53 1019.1
20260902110058 30 0 1.6 11.3 0.00 0.00 0.00 53 1019.2
20260902105539 30 134 3.2 11.3 0.00 0.00 0.00 52 1019.3
20260902105036 30 115 1.6 6.4 0.00 0.00 0.00 54 1019.3
20260902104556 30 217 1.6 6.4 0.00 0.00 0.00 54 1019.4
20260902104035 30 166 1.6 11.3 0.00 0.00 0.00 56 1019.4
20260902103537 29 240 1.6 11.3 0.00 0.00 0.00 56 1019.4
20260902103107 29 138 6.4 11.3 0.00 0.00 0.00 56 1019.6
20260902102537 29 276 1.6 9.7 0.00 0.00 0.00 51 1019.5
20260902102037 28 0 4.8 11.3 0.00 0.00 0.00 56 1019.6
20260902101551 29 138 4.8 14.5 0.00 0.00 0.00 57 1019.7
20260902101036 29 144 4.8 14.5 0.00 0.00 0.00 57 1019.7
20260902100536 29 205 4.8 14.5 0.00 0.00 0.00 51 1019.7
20260902100124 28 182 3.2 14.5 0.00 0.00 0.00 56 1019.8
20260902095537 28 142 4.8 11.3 0.00 0.00 0.00 57 1019.9
20260902095037 28 159 4.8 11.3 0.00 0.00 0.00 58 1019.9
20260902094614 28 84 3.2 9.7 0.00 0.00 0.00 58 1019.9
20260902094037 28 129 1.6 6.4 0.00 0.00 0.00 58 1020.0
20260902093537 28 137 3.2 12.9 0.00 0.00 0.00 58 1020.0
20260902093109 28 127 6.4 12.9 0.00 0.00 0.00 57 1020.0
20260902092536 28 144 4.8 11.3 0.00 0.00 0.00 56 1020.0
20260902092040 28 156 1.6 11.3 0.00 0.00 0.00 57 1020.0
20260902091557 28 103 4.8 11.3 0.00 0.00 0.00 58 1019.9
20260902091036 28 56 3.2 11.3 0.00 0.00 0.00 58 1019.9
20260902090537 28 146 3.2 9.7 0.00 0.00 0.00 59 1019.9
20260902090057 28 96 3.2 9.7 0.00 0.00 0.00 59 1020.1
20260902085538 28 13 3.2 6.4 0.00 0.00 0.00 59 1020.0
20260902085037 27 95 3.2 11.3 0.00 0.00 0.00 60 1020.1
20260902084559 27 19 4.8 11.3 0.00 0.00 0.00 61 1020.1
20260902084039 27 0 1.6 6.4 0.00 0.00 0.00 63 1020.1
20260902083537 26 25 1.6 6.4 0.00 0.00 0.00 65 1020.1
20260902083058 26 51 0.0 6.4 0.00 0.00 0.00 65 1020.0
20260902082541 26 51 0.0 11.3 0.00 0.00 0.00 66 1020.0
20260902082037 26 98 3.2 11.3 0.00 0.00 0.00 65 1020.0
20260902081555 26 139 3.2 11.3 0.00 0.00 0.00 65 1020.0
20260902081036 26 142 3.2 11.3 0.00 0.00 0.00 65 1020.0
20260902080534 26 129 4.8 11.3 0.00 0.00 0.00 65 1019.9
20260902080105 26 110 4.8 9.7 0.00 0.00 0.00 65 1019.8
20260902075541 26 116 3.2 9.7 0.00 0.00 0.00 67 1019.9
20260902075036 26 96 1.6 6.4 0.00 0.00 0.00 68 1019.8
20260902074602 25 109 1.6 9.7 0.00 0.00 0.00 69 1019.8
20260902074037 25 86 1.6 9.7 0.00 0.00 0.00 69 1019.7
20260902073536 25 113 3.2 9.7 0.00 0.00 0.00 68 1019.7
20260902073109 25 134 1.6 6.4 0.00 0.00 0.00 70 1019.8
20260902072536 25 83 1.6 6.4 0.00 0.00 0.00 70 1019.7
20260902072036 25 71 1.6 6.4 0.00 0.00 0.00 70 1019.7
20260902071602 24 73 3.2 6.4 0.00 0.00 0.00 72 1019.7
20260902071036 24 83 1.6 6.4 0.00 0.00 0.00 72 1019.7
20260902070537 23 131 0.0 4.8 0.00 0.00 0.00 75 1019.7
20260902070054 23 0 1.6 6.4 0.00 0.00 0.00 75 1019.6
20260902065537 23 142 1.6 6.4 0.00 0.00 0.00 74 1019.6
20260902065037 23 92 1.6 6.4 0.00 0.00 0.00 76 1019.6
20260902064554 23 43 1.6 4.8 0.00 0.00 0.00 78 1019.7
20260902064036 23 67 1.6 4.8 0.00 0.00 0.00 79 1019.7
20260902063536 22 57 1.6 3.2 0.00 0.00 0.00 80 1019.6
20260902063057 22 98 0.0 4.8 0.00 0.00 0.00 81 1019.6
20260902062536 22 55 0.0 4.8 0.00 0.00 0.00 81 1019.6
20260902062036 22 32 1.6 4.8 0.00 0.00 0.00 82 1019.6
20260902061615 22 55 0.0 3.2 0.00 0.00 0.00 83 1019.6
20260902061040 21 55 0.0 3.2 0.00 0.00 0.00 83 1019.5
20260902060536 21 70 0.0 3.2 0.00 0.00 0.00 83 1019.5
20260902060100 21 0 0.0 1.6 0.00 0.00 0.00 83 1019.6
20260902055536 21 0 0.0 1.6 0.00 0.00 0.00 84 1019.5
20260902055036 21 0 0.0 1.6 0.00 0.00 0.00 83 1019.5
20260902054600 21 0 0.0 1.6 0.00 0.00 0.00 83 1019.4
20260902054041 21 0 0.0 1.6 0.00 0.00 0.00 83 1019.3
20260902053537 21 0 0.0 1.6 0.00 0.00 0.00 83 1019.3
20260902053105 21 0 0.0 1.6 0.00 0.00 0.00 83 1019.3
20260902052537 21 0 0.0 1.6 0.00 0.00 0.00 83 1019.2
20260902052039 21 0 0.0 1.6 0.00 0.00 0.00 83 1019.2
20260902051558 21 0 0.0 1.6 0.00 0.00 0.00 82 1019.1
20260902051037 21 70 0.0 1.6 0.00 0.00 0.00 82 1019.0
20260902050538 21 0 0.0 1.6 0.00 0.00 0.00 82 1019.0
20260902050101 21 0 0.0 1.6 0.00 0.00 0.00 82 1018.9
20260902045537 21 0 0.0 1.6 0.00 0.00 0.00 82 1018.8
20260902045037 21 0 0.0 3.2 0.00 0.00 0.00 81 1018.8
20260902044559 21 0 0.0 3.2 0.00 0.00 0.00 82 1018.8
20260902044038 21 70 1.6 3.2 0.00 0.00 0.00 81 1018.8
20260902043537 21 70 0.0 3.2 0.00 0.00 0.00 81 1019.0
20260902043102 21 0 0.0 0.0 0.00 0.00 0.00 81 1019.0
20260902042539 21 0 0.0 0.0 0.00 0.00 0.00 81 1019.0
20260902042037 21 0 0.0 1.6 0.00 0.00 0.00 81 1018.9
20260902041620 21 0 0.0 3.2 0.00 0.00 0.00 80 1018.9
20260902041038 21 0 0.0 3.2 0.00 0.00 0.00 80 1018.8
20260902040537 21 0 1.6 4.8 0.00 0.00 0.00 81 1018.9
20260902040100 21 77 1.6 4.8 0.00 0.00 0.00 81 1018.8
20260902035537 21 87 1.6 4.8 0.00 0.00 0.00 81 1018.7
20260902035038 21 94 0.0 4.8 0.00 0.00 0.00 82 1018.6
20260902034556 21 96 1.6 6.4 0.00 0.00 0.00 82 1018.6
20260902034037 21 81 1.6 6.4 0.00 0.00 0.00 82 1018.7
20260902033536 21 62 3.2 6.4 0.00 0.00 0.00 82 1018.7
20260902033051 21 69 1.6 6.4 0.00 0.00 0.00 82 1018.7
20260902032538 21 81 3.2 6.4 0.00 0.00 0.00 83 1018.6
20260902032038 21 81 3.2 6.4 0.00 0.00 0.00 83 1018.7
20260902031615 21 28 3.2 6.4 0.00 0.00 0.00 83 1018.7
20260902031039 21 41 1.6 4.8 0.00 0.00 0.00 84 1018.8
20260902030539 21 53 1.6 6.4 0.00 0.00 0.00 84 1018.8
20260902030059 21 65 1.6 6.4 0.00 0.00 0.00 84 1018.8
20260902025538 21 63 1.6 6.4 0.00 0.00 0.00 84 1018.8
20260902025037 22 48 1.6 4.8 0.00 0.00 0.00 84 1018.7
20260902024605 22 48 3.2 4.8 0.00 0.00 0.00 84 1018.7
20260902024036 22 55 1.6 3.2 0.00 0.00 0.00 84 1018.7
20260902023536 22 36 0.0 3.2 0.00 0.00 0.00 84 1018.7
20260902023103 22 36 1.6 4.8 0.00 0.00 0.00 84 1018.7
20260902022538 22 36 1.6 4.8 0.00 0.00 0.00 83 1018.7
20260902022038 22 36 0.0 3.2 0.00 0.00 0.00 83 1018.7
20260902021603 22 36 0.0 4.8 0.00 0.00 0.00 83 1018.6
20260902021038 22 36 1.6 4.8 0.00 0.00 0.00 83 1018.6
20260902020537 22 36 1.6 4.8 0.00 0.00 0.00 83 1018.5
20260902020103 22 58 1.6 4.8 0.00 0.00 0.00 83 1018.5
20260902015539 22 64 1.6 4.8 0.00 0.00 0.00 82 1018.5
20260902015041 22 55 1.6 6.4 0.00 0.00 0.00 82 1018.5
20260902014558 22 21 1.6 6.4 0.00 0.00 0.00 82 1018.6
20260902014039 22 46 1.6 6.4 0.00 0.00 0.00 82 1018.7
20260902013538 22 29 3.2 6.4 0.00 0.00 0.00 81 1018.6
20260902013057 22 48 3.2 6.4 0.00 0.00 0.00 81 1018.6
20260902012538 22 33 1.6 4.8 0.00 0.00 0.00 80 1018.7
20260902012037 22 31 1.6 4.8 0.00 0.00 0.00 80 1018.6
20260902011604 22 31 1.6 4.8 0.00 0.00 0.00 80 1018.6
20260902011037 22 31 1.6 4.8 0.00 0.00 0.00 79 1018.7
20260902010537 22 31 1.6 4.8 0.00 0.00 0.00 79 1018.6
20260902010100 22 31 1.6 4.8 0.00 0.00 0.00 79 1018.6
20260902005538 22 31 1.6 4.8 0.00 0.00 0.00 79 1018.7
20260902005037 22 31 1.6 4.8 0.00 0.00 0.00 79 1018.7
20260902004559 22 36 1.6 4.8 0.00 0.00 0.00 78 1018.7
20260902004040 22 25 3.2 4.8 0.00 0.00 0.00 78 1018.7
20260902003537 22 23 1.6 4.8 0.00 0.00 0.00 78 1018.7
20260902003106 22 23 0.0 4.8 0.00 0.00 0.00 78 1018.6
20260902002538 22 34 1.6 4.8 0.00 0.00 0.00 78 1018.6
20260902002037 22 0 3.2 4.8 0.00 0.00 0.00 78 1018.5
20260902001609 23 36 1.6 4.8 0.00 0.00 0.00 78 1018.6
20260902001036 23 29 3.2 4.8 0.00 0.00 0.00 78 1018.5
20260902000537 23 16 1.6 4.8 0.00 0.00 0.00 78 1018.5
20260902000059 23 39 1.6 4.8 0.00 0.00 0.00 78 1018.5
20260901235537 23 39 1.6 6.4 0.00 0.00 0.00 77 1018.5
20260901235037 23 37 1.6 6.4 0.00 0.00 0.00 77 1018.5
20260901234606 23 29 1.6 6.4 0.00 0.00 0.00 77 1018.6
20260901234037 23 33 1.6 4.8 0.00 0.00 0.00 77 1018.6
20260901233538 23 31 1.6 4.8 0.00 0.00 0.00 76 1018.6
20260901233109 23 28 3.2 4.8 0.00 0.00 0.00 76 1018.6
20260901232540 23 35 1.6 4.8 0.00 0.00 0.00 76 1018.6
20260901232038 23 44 1.6 4.8 0.00 0.00 0.00 76 1018.6
20260901231608 23 61 1.6 4.8 0.00 0.00 0.00 75 1018.5
20260901231038 23 36 1.6 4.8 0.00 0.00 0.00 75 1018.5
20260901230538 23 36 1.6 4.8 0.00 0.00 0.00 75 1018.6
20260901230109 23 36 1.6 4.8 0.00 0.00 0.00 75 1018.6
20260901225538 23 15 1.6 6.4 0.00 0.00 0.00 74 1018.6
20260901225038 23 29 3.2 6.4 0.00 0.00 0.00 74 1018.5
20260901224555 23 30 1.6 4.8 0.00 0.00 0.00 74 1018.6
20260901224037 24 30 1.6 4.8 0.00 0.00 0.00 74 1018.6
20260901223635 24 16 1.6 4.8 0.00 0.00 0.00 74 1018.6
20260901223058 24 25 1.6 4.8 0.00 0.00 0.00 74 1018.5
20260901222536 24 51 1.6 4.8 0.00 0.00 0.00 73 1018.3
20260901222035 24 59 3.2 6.4 0.00 0.00 0.00 73 1018.3
20260901221601 24 73 3.2 6.4 0.00 0.00 0.00 73 1018.4
20260901221035 24 73 3.2 6.4 0.00 0.00 0.00 73 1018.4
20260901220536 25 121 1.6 4.8 0.00 0.00 0.00 72 1018.4
20260901220104 25 130 1.6 4.8 0.00 0.00 0.00 72 1018.4
20260901215536 25 135 1.6 4.8 0.00 0.00 0.00 72 1018.3
20260901215038 25 132 1.6 4.8 0.00 0.00 0.00 71 1018.3
20260901214603 25 0 0.0 4.8 0.00 0.00 0.00 71 1018.3
20260901214034 25 113 1.6 4.8 0.00 0.00 0.00 71 1018.3
20260901213537 25 118 1.6 4.8 0.00 0.00 0.00 71 1018.3
20260901213136 25 121 1.6 6.4 0.00 0.00 0.00 71 1018.3
20260901212534 25 112 1.6 6.4 0.00 0.00 0.00 71 1018.3
20260901212034 25 107 3.2 6.4 0.00 0.00 0.00 71 1018.3
20260901211556 25 108 3.2 6.4 0.00 0.00 0.00 71 1018.2
20260901211035 25 115 3.2 6.4 0.00 0.00 0.00 71 1018.2
20260901210535 25 102 3.2 6.4 0.00 0.00 0.00 70 1018.1
20260901210052 25 125 3.2 6.4 0.00 0.00 0.00 70 1018.3
20260901205537 25 128 3.2 6.4 0.00 0.00 0.00 70 1018.3
20260901205036 25 128 3.2 6.4 0.00 0.00 0.00 70 1018.4
20260901204556 25 107 3.2 6.4 0.00 0.00 0.00 70 1018.3
20260901204037 25 113 3.2 6.4 0.00 0.00 0.00 70 1018.3
20260901203539 25 109 1.6 6.4 0.00 0.00 0.00 70 1018.3
20260901203117 26 94 1.6 4.8 0.00 0.00 0.00 70 1018.3
20260901202538 26 98 3.2 6.4 0.00 0.00 0.00 70 1018.3
20260901202039 26 89 3.2 6.4 0.00 0.00 0.00 70 1018.2
20260901201557 26 76 1.6 6.4 0.00 0.00 0.00 70 1018.1
20260901201038 26 101 3.2 6.4 0.00 0.00 0.00 70 1018.1
20260901200538 26 96 1.6 6.4 0.00 0.00 0.00 70 1018.0
20260901200056 26 113 3.2 6.4 0.00 0.00 0.00 70 1018.1
20260901195537 26 110 3.2 11.3 0.00 0.00 0.00 70 1018.0
20260901195042 26 85 3.2 11.3 0.00 0.00 0.00 69 1018.1
20260901194604 26 131 3.2 6.4 0.00 0.00 0.00 69 1018.0
20260901194038 26 126 3.2 9.7 0.00 0.00 0.00 69 1017.9
20260901193538 26 105 3.2 9.7 0.00 0.00 0.00 69 1017.9
20260901193052 26 130 3.2 9.7 0.00 0.00 0.00 69 1017.9
20260901192537 26 101 3.2 11.3 0.00 0.00 0.00 68 1017.8
20260901192037 27 101 3.2 11.3 0.00 0.00 0.00 68 1017.8
20260901191611 27 123 3.2 11.3 0.00 0.00 0.00 68 1017.7
20260901191037 27 94 4.8 9.7 0.00 0.00 0.00 68 1017.6
20260901190537 27 89 3.2 9.7 0.00 0.00 0.00 68 1017.5
20260901190055 27 98 3.2 6.4 0.00 0.00 0.00 67 1017.5
20260901185538 27 91 3.2 6.4 0.00 0.00 0.00 67 1017.4